This is the latest recevied weather packets stored in our database for station/object KC4GS-13. If no packets are shown the sender has not sent any weather packets the latest 10 day(s).
| Time | Temp. | Humidity | Pressure | Rain* | Wind** | Luminosity | Snow |
|---|---|---|---|---|---|---|---|
| 1787581065 | 26.67° C | 64% | 1018 hPa | 0 mm | - | 126 W/m² | - |
| 1787580761 | 26.67° C | 64% | 1017.7 hPa | 0 mm | - | 115 W/m² | - |
| 1787580457 | 26.67° C | 64% | 1017.8 hPa | 0 mm | - | 473 W/m² | - |
| 1787580151 | 26.67° C | 65% | 1017.9 hPa | 0 mm | - | 462 W/m² | - |
| 1787579846 | 26.67° C | 65% | 1017.9 hPa | 0 mm | - | 105 W/m² | - |
| 1787579541 | 26.11° C | 66% | 1017.8 hPa | 0 mm | - | 151 W/m² | - |
| 1787579236 | 26.11° C | 66% | 1017.7 hPa | 0 mm | - | 356 W/m² | - |
| 1787578931 | 25.56° C | 67% | 1017.8 hPa | 0 mm | - | 251 W/m² | - |
| 1787578628 | 25.56° C | 67% | 1017.7 hPa | 0 mm | - | 120 W/m² | - |
| 1787578327 | 25° C | 68% | 1017.7 hPa | 0 mm | - | 117 W/m² | - |
| 1787578022 | 25° C | 69% | 1017.9 hPa | 0 mm | - | 58 W/m² | - |
| 1787577717 | 25° C | 69% | 1017.6 hPa | 0 mm | - | 53 W/m² | - |
| 1787577413 | 24.44° C | 70% | 1017.8 hPa | 0 mm | - | 52 W/m² | - |
| 1787577109 | 24.44° C | 71% | 1017.8 hPa | 0 mm | - | 56 W/m² | - |
| 1787576805 | 24.44° C | 71% | 1017.9 hPa | 0 mm | - | 50 W/m² | - |
| 1787576500 | 23.89° C | 72% | 1017.7 hPa | 0 mm | - | 50 W/m² | - |
| 1787576196 | 23.89° C | 72% | 1017.8 hPa | 0 mm | - | 52 W/m² | - |
| 1787575891 | 23.89° C | 73% | 1017.8 hPa | 0 mm | - | 48 W/m² | - |
| 1787575587 | 23.89° C | 74% | 1017.7 hPa | 0 mm | - | 46 W/m² | - |
| 1787575282 | 23.33° C | 74% | 1017.9 hPa | 0 mm | - | 46 W/m² | - |
| 1787574977 | 23.33° C | 75% | 1017.8 hPa | 0 mm | - | 44 W/m² | - |
| 1787574672 | 22.78° C | 75% | 1017.7 hPa | 0 mm | - | 43 W/m² | - |
| 1787574368 | 22.78° C | 75% | 1017.6 hPa | 0 mm | - | 41 W/m² | - |
| 1787574066 | 22.78° C | 76% | 1017.7 hPa | 0 mm | - | 40 W/m² | - |
| 1787573762 | 22.78° C | 77% | 1017.7 hPa | 0 mm | - | 38 W/m² | - |
* Rain latest hour (hover to see other rain measurements)
** Current wind speed in m/s (hover to see current wind gust speed)